Weather History for Imperial, CA

Change the Weather History Date:

Saturday, August 3, 2013

  Actual Average Record
Temperature  
Mean Temperature 92 °F -  
Max Temperature 107 °F 107 °F 118 °F (1998)
Min Temperature 77 °F 79 °F 60 °F (1956)
Cooling Degree Days 26    
Growing Degree Days 42 (Base 50)    
Moisture  
Dew Point 45 °F    
Average Humidity 21    
Maximum Humidity 31    
Minimum Humidity 12    
Precipitation  
Precipitation 0.00 in - - ()
Sea Level Pressure  
Sea Level Pressure 29.78 in    
Wind  
Wind Speed 2 mph (West)    
Max Wind Speed 10 mph    
Max Gust Speed -    
Visibility 10 miles    
Events      
Averages and records for this station are not official NWS values.
T = Trace of Precipitation, MM = Missing Value Source: NWS Daily Summary

Daily Weather History Graph

Daily Weather History Graph

Search for Another Location

Airport:

Trip Planner

Search our weather history database for the weather conditions in past years. The results will help you decide how hot, cold, wet, or windy it might be!

Date:

Astronomy

Aug. 03, 2013 Rise Set
Actual Time 5:57 AM PDT 7:38 PM PDT
Civil Twilight 5:30 AM PDT 8:05 PM PDT
Nautical Twilight 4:58 AM PDT 8:37 PM PDT
Astronomical Twilight 4:24 AM PDT 9:11 PM PDT
Moon 3:12 AM PDT (8/3) 5:22 PM PDT (8/3)
Length of Visible Light 14h 34m
Length of Day
13h 41m
Waning Crescent, 9% of the Moon is Illuminated
Aug 3
Waning Crescent
Aug 6
New
Aug 14
First Quarter
Aug 20
Full
Aug 28
Last Quarter

Hourly Weather History & Observations

Time (PDT) Temp. Heat Index Dew Point Humidity Pressure Visibility Wind Dir Wind Speed Gust Speed Precip Events Conditions
12:53 AM 84.0 °F - 37.9 °F 19% 29.77 in 10.0 mi Calm Calm - N/A   Clear
1:53 AM 82.0 °F - 37.9 °F 21% 29.77 in 10.0 mi Calm Calm - N/A   Clear
2:53 AM 78.1 °F - 44.1 °F 30% 29.76 in 10.0 mi WSW 3.5 mph - N/A   Clear
3:53 AM 78.1 °F - 45.0 °F 31% 29.76 in 10.0 mi WSW 5.8 mph - N/A   Clear
4:53 AM 82.0 °F - 39.0 °F 22% 29.78 in 10.0 mi South 5.8 mph - N/A   Clear
5:53 AM 78.1 °F - 37.9 °F 24% 29.79 in 10.0 mi Calm Calm - N/A   Clear
6:53 AM 77.0 °F - 43.0 °F 30% 29.82 in 10.0 mi Calm Calm - N/A   Clear
7:53 AM 82.9 °F - 43.0 °F 24% 29.83 in 10.0 mi Calm Calm - N/A   Clear
8:53 AM 89.1 °F 86.7 °F 53.1 °F 29% 29.84 in 10.0 mi Calm Calm - N/A   Clear
9:53 AM 91.9 °F 90.0 °F 55.0 °F 29% 29.84 in 10.0 mi Variable 5.8 mph - N/A   Clear
10:53 AM 97.0 °F - 50.0 °F 20% 29.84 in 10.0 mi NE 4.6 mph - N/A   Clear
11:53 AM 97.0 °F - 50.0 °F 20% 29.83 in 10.0 mi Variable 3.5 mph - N/A   Clear
12:53 PM 99.0 °F - 48.9 °F 18% 29.81 in 10.0 mi Variable 3.5 mph - N/A   Clear
1:53 PM 100.9 °F - 46.0 °F 15% 29.79 in 10.0 mi Calm Calm - N/A   Clear
2:53 PM 104.0 °F - 42.1 °F 12% 29.77 in 10.0 mi Variable 3.5 mph - N/A   Clear
3:53 PM 104.0 °F - 48.0 °F 15% 29.74 in 10.0 mi Calm Calm - N/A   Clear
4:53 PM 106.0 °F - 50.0 °F 15% 29.73 in 10.0 mi NNE 5.8 mph - N/A   Clear
5:53 PM 105.1 °F - 51.1 °F 16% 29.71 in 10.0 mi Calm Calm - N/A   Clear
6:53 PM 102.9 °F - 46.9 °F 15% 29.71 in 10.0 mi Calm Calm - N/A   Clear
7:53 PM 100.9 °F - 46.9 °F 16% 29.72 in 10.0 mi Calm Calm - N/A   Clear
8:53 PM 89.1 °F - 48.0 °F 24% 29.74 in 10.0 mi West 10.4 mph - N/A   Clear
9:53 PM 86.0 °F - 46.9 °F 26% 29.77 in 10.0 mi West 5.8 mph - N/A   Clear
10:53 PM 86.0 °F - 43.0 °F 22% 29.77 in 10.0 mi West 9.2 mph - N/A   Clear
11:53 PM 86.0 °F - 37.9 °F 18% 29.77 in 10.0 mi WSW 10.4 mph - N/A   Clear